[[{"header":{"parameterUnit":"m.s-1","parameterCategory":1,"la1":30.2991,"la2":30.254,"lo1":-89.0895,"lo2":-89.0444,"dy":0.0017,"dx":0.0017,"nx":28,"ny":28,"refTime":"2025-09-18T21:00:00:Z","depth":0,"parameterNumber":2,"parameterNumberName":"U-component_of_WINDS"},"data":[0,0,0,0,0,0,0,0,0,0,0,0,0,0,0,0,0,0,0,0,0,0,0,0,0,0,0,0,0,0,0,0,0,0,0,0,0,0,0,0,0,0,0,0,0,0,0,0,0,0,0,0,0,0,0,0,0,0,-0.0042,-0.0042,0,0.0019,0.002,0.0021,0.0074,0.0075,0.0075,0.0076,0.0138,0.0139,0.014,0,0,0,0,0,0,0,0,0,0,0,0,0,-0.0115,-0.0114,-0.0042,-0.0042,-0.0041,0.0019,0.002,0.0021,0.0074,0.0075,0.0076,0.0076,0.0138,0.0139,0.014,0,0,0,0,0,0,0,0,0,0,0,0,0,-0.0072,-0.0114,-0.0042,-0.0007,-0.0003,0.0019,0.002,0.0021,0.0074,0.0075,0.0076,0.0077,0.0137,0.0139,0.0141,0.0132,0,0,0.0146,0.0146,0,0,0,0,0,0,0,0,-0.0074,-0.0069,-0.0013,-0.0009,-0.0005,0.004,0.0017,0.0058,0.0074,0.0045,0.0076,0.0077,0.0105,0.0109,0.0119,0.0135,0.0138,0.0146,0.0147,0.0147,0.0148,0,0,0,0,0,0,0,-0.0077,-0.0071,-0.0018,-0.0012,-0.0007,0.0005,0.0013,0.0025,0.0069,0.0047,0.0051,0.0058,0.0107,0.0117,0.012,0.0139,0.0146,0.0147,0.0148,0.0149,0.015,0.015,0,0,0,0,0,0,-0.0086,-0.0074,-0.002,-0.0016,-0.0038,0.0006,0.0014,0.0025,0.0069,0.0076,0.0057,0.006,0.0114,0.0118,0.0123,0.0115,0.0147,0.0149,0.015,0.0151,0.015,0.0149,0,0,0,0,0,0,-0.0087,-0.0081,-0.0022,-0.0044,-0.0036,0.0006,0.0018,0.0025,0.0035,0.0076,0.0084,0.0059,0.0115,0.0121,0.0129,0.0118,0.015,0.0151,0.0152,0.0151,0.015,0.01,0,0,0,0,0,0,-0.009,-0.0082,-0.0085,-0.0045,-0.0035,-0.0017,0.0017,0.0026,0.0038,0.0043,0.008,0.0087,0.0116,0.0127,0.0131,0.0121,0.0152,0.0154,0.0152,0.015,0.0102,0.0097,0.0092,0,0,0,0,0,-0.0092,-0.0101,-0.0085,-0.0079,-0.0037,-0.0017,-0.0012,0.0021,0.0037,0.0034,0.0061,0.0086,0.0119,0.0127,0.0132,0.0122,0.0155,0.0152,0.015,0.0105,0.0098,0.0092,0,0,0,0,0,0,-0.0144,-0.0095,-0.0077,-0.0073,-0.005,-0.0009,-0.0011,0.0013,0.0032,0.0035,0.0075,0.0083,0.0087,0.0106,0.0114,0.0116,0.014,0.0139,0.0104,0.0097,0.0092,0.0087,0.0154,0,0,0,0,0,-0.0155,-0.0143,-0.0101,-0.0101,-0.0091,-0.0053,-0.0043,-0.002,0.0006,0.0016,0.0043,0.0066,0.0081,0.0091,0.0107,0.0106,0.0114,0.0102,0.0096,0.0092,0.009,0.0089,0.0084,0.0142,0.0142,0.0142,0,0,-0.0177,-0.0149,-0.0144,-0.0111,-0.009,-0.008,-0.0045,-0.0035,-0.0027,0.0017,0.0027,0.0047,0.0076,0.0079,0.0082,0.0095,0.0076,0.0089,0.0085,0.0086,0.0086,0.0081,0.0076,0.0141,0.0141,0.0141,0,0,-0.0213,-0.019,-0.0188,-0.0168,-0.0137,-0.0112,-0.0112,-0.0074,-0.0059,-0.0048,-0.0016,-0.0006,0.0021,0.0039,0.0052,0.0023,0.0047,0.0027,-0.0001,-0.0002,-0.0007,-0.0011,-0.0022,-0.0027,0.0026,0.0026,0.0026,0,-0.0245,-0.0227,-0.019,-0.0182,-0.0169,-0.0129,-0.0128,-0.011,-0.0076,-0.0068,-0.0054,-0.0021,0.0002,0.0009,0.0002,0.0012,0.0012,0.0023,-0.0009,-0.0013,-0.0016,-0.0026,-0.0031,0.0023,0.0023,0.0024,0.0024,0,-0.0268,-0.0256,-0.0259,-0.0227,-0.0213,-0.0209,-0.0173,-0.0164,-0.0141,-0.0118,-0.0109,-0.008,-0.0058,-0.0054,-0.0032,-0.0044,-0.0037,-0.0016,0.0008,-0.0025,-0.0034,-0.0038,0.0019,0.002,0.0021,0.0022,0,0,-0.0335,-0.0283,-0.0285,-0.027,-0.0233,-0.0223,-0.0217,-0.0195,-0.0189,-0.0167,-0.0161,-0.014,-0.0121,-0.0107,-0.0082,-0.0083,-0.011,-0.0062,-0.0061,-0.0073,-0.0122,-0.0139,-0.0145,-0.0093,-0.0094,-0.0094,-0.0125,0,-0.0366,-0.0353,-0.032,-0.0317,-0.0306,-0.0267,-0.0262,-0.0239,-0.0217,-0.0205,-0.018,-0.0167,-0.0142,-0.0133,-0.0132,-0.0107,-0.0119,-0.0104,-0.0089,-0.0089,-0.0099,-0.0149,-0.0167,-0.0197,-0.0129,-0.0129,-0.013,0,-0.04,-0.0381,-0.0377,-0.0341,-0.0335,-0.0331,-0.0308,-0.0297,-0.0271,-0.0254,-0.0239,-0.0211,-0.0204,-0.018,-0.017,-0.016,-0.0152,-0.0138,-0.0139,-0.0137,-0.0112,-0.0151,-0.0206,-0.0212,-0.0135,-0.0134,-0.0134,0,-0.0452,-0.0424,-0.0418,-0.0406,-0.0364,-0.0362,-0.0345,-0.0317,-0.0307,-0.0287,-0.028,-0.0259,-0.0249,-0.0234,-0.0203,-0.0188,-0.0196,-0.017,-0.0183,-0.0184,-0.0188,-0.0189,-0.0245,-0.018,-0.018,-0.018,-0.018,0,-0.0491,-0.049,-0.0441,-0.0438,-0.0436,-0.0398,-0.0398,-0.0377,-0.0353,-0.0345,-0.031,-0.0304,-0.0262,-0.0251,-0.0226,-0.0222,-0.0217,-0.0204,-0.0198,-0.0208,-0.021,-0.0204,-0.0201,-0.0181,-0.0181,-0.0181,-0.0181,0,-0.0549,-0.0515,-0.0507,-0.0467,-0.0457,-0.0458,-0.0425,-0.0421,-0.0396,-0.0387,-0.0383,-0.0345,-0.033,-0.0297,-0.0273,-0.0256,-0.0259,-0.0246,-0.0268,-0.0265,-0.0281,-0.0281,-0.0336,-0.0342,-0.0273,-0.0274,-0.0274,0,-0.0577,-0.0575,-0.0536,-0.0528,-0.0512,-0.05,-0.0488,-0.0451,-0.0441,-0.0411,-0.041,-0.0393,-0.0377,-0.0356,-0.0326,-0.0308,-0.0296,-0.0317,-0.0293,-0.0304,-0.0299,-0.03,-0.03,-0.0323,-0.0324,-0.0325,-0.0325,0,-0.063,-0.0614,-0.0599,-0.0578,-0.0565,-0.0547,-0.0527,-0.0523,-0.0481,-0.0472,-0.0456,-0.0444,-0.042,-0.0403,-0.0381,-0.0363,-0.0338,-0.0332,-0.0335,-0.0347,-0.036,-0.0355,-0.0284,-0.0332,-0.0331,-0.0331,-0.033,-0.033,-0.0675,-0.0673,-0.0645,-0.0629,-0.061,-0.0592,-0.0587,-0.0561,-0.0548,-0.0525,-0.0504,-0.0491,-0.0465,-0.0432,-0.0416,-0.0406,-0.0393,-0.0396,-0.0397,-0.0399,-0.0405,-0.036,-0.0401,-0.0401,-0.0401,-0.0401,-0.0401,0,-0.0729,-0.0709,-0.0694,-0.0668,-0.0656,-0.0631,-0.0608,-0.06,-0.0589,-0.0567,-0.0552,-0.0535,-0.0519,-0.0488,-0.0469,-0.0467,-0.0455,-0.0464,-0.0465,-0.0461,-0.0416,-0.0417,-0.0474,-0.0474,-0.0474,-0.0474,-0.0474,-0.0474,-0.0755,-0.075,-0.073,-0.0716,-0.0695,-0.0682,-0.0671,-0.0655,-0.0637,-0.0619,-0.0606,-0.0586,-0.056,-0.0539,-0.0524,-0.0515,-0.0511,-0.0524,-0.0512,-0.0471,-0.0464,-0.0458,-0.0458,-0.0523,-0.0523,-0.0558,-0.0558,-0.0558]},{"header":{"parameterUnit":"m.s-1","parameterCategory":1,"la1":30.2991,"la2":30.254,"lo1":-89.0895,"lo2":-89.0444,"dy":0.0017,"dx":0.0017,"nx":28,"ny":28,"refTime":"2025-09-18T21:00:00:Z","depth":0,"parameterNumber":3,"parameterNumberName":"V-component_of_WINDS"},"data":[0,0,0,0,0,0,0,0,0,0,0,0,0,0,0,0,0,0,0,0,0,0,0,0,0,0,0,0,0,0,0,0,0,0,0,0,0,0,0,0,0,0,0,0,0,0,0,0,0,0,0,0,0,0,0,0,0,0,2.7068,2.7068,0,2.7079,2.7079,2.7079,2.7079,2.7079,2.7078,2.7078,2.7088,2.7089,2.7089,0,0,0,0,0,0,0,0,0,0,0,0,0,2.7044,2.7045,2.7068,2.7068,2.7068,2.7079,2.7079,2.7079,2.7079,2.7079,2.7078,2.7078,2.7088,2.7089,2.7089,0,0,0,0,0,0,0,0,0,0,0,0,0,2.7055,2.7045,2.7068,2.7069,2.7069,2.7079,2.7079,2.7079,2.7079,2.7079,2.7078,2.7078,2.7088,2.7089,2.7089,2.7098,0,0,2.7091,2.7092,0,0,0,0,0,0,0,0,2.7054,2.7056,2.7069,2.7069,2.7069,2.7077,2.7075,2.7085,2.7079,2.7075,2.7078,2.7078,2.7085,2.7086,2.7088,2.7098,2.7099,2.7091,2.7092,2.7092,2.7092,0,0,0,0,0,0,0,2.7054,2.7055,2.7072,2.7069,2.7069,2.7069,2.707,2.7077,2.7081,2.7075,2.7075,2.7077,2.7085,2.7088,2.7089,2.7099,2.7091,2.7092,2.7092,2.7093,2.7117,2.7117,0,0,0,0,0,0,2.7053,2.7055,2.7072,2.7072,2.7061,2.7069,2.7071,2.7075,2.7081,2.7082,2.7077,2.7077,2.7087,2.7088,2.7089,2.7099,2.7092,2.7093,2.7093,2.7116,2.7117,2.7117,0,0,0,0,0,0,2.7052,2.7054,2.7071,2.7064,2.7066,2.707,2.7075,2.7075,2.7078,2.7082,2.7083,2.7079,2.7087,2.7088,2.7096,2.7099,2.7093,2.7093,2.7116,2.7116,2.7117,2.712,0,0,0,0,0,0,2.7052,2.7054,2.7058,2.7064,2.7066,2.7078,2.7075,2.7076,2.7079,2.7079,2.7084,2.7085,2.7087,2.7095,2.7096,2.71,2.7094,2.7116,2.7116,2.7117,2.7119,2.712,2.7121,0,0,0,0,0,2.7051,2.7058,2.7058,2.706,2.7071,2.7078,2.708,2.7082,2.708,2.7083,2.7086,2.7085,2.7099,2.7096,2.7097,2.7101,2.7115,2.7116,2.7117,2.7119,2.712,2.7121,0,0,0,0,0,0,2.7051,2.7058,2.7059,2.7068,2.7073,2.7078,2.7083,2.7083,2.7088,2.7087,2.7089,2.709,2.7098,2.7101,2.7097,2.711,2.7107,2.7108,2.7108,2.7109,2.711,2.7109,2.7094,0,0,0,0,0,2.7052,2.7059,2.7064,2.7072,2.7074,2.7078,2.7082,2.7083,2.7088,2.7089,2.7093,2.7097,2.7103,2.7106,2.7111,2.712,2.7121,2.7124,2.7124,2.7125,2.7126,2.713,2.7131,2.7119,2.7119,2.7119,0,0,2.7055,2.706,2.7063,2.7072,2.7076,2.7082,2.708,2.7086,2.709,2.709,2.7098,2.7101,2.7106,2.7114,2.7118,2.7116,2.7129,2.7126,2.7126,2.7127,2.7131,2.7132,2.7133,2.7119,2.7119,2.7119,0,0,2.7062,2.7067,2.7073,2.7078,2.7084,2.7086,2.7088,2.7094,2.7096,2.7104,2.7104,2.7109,2.7118,2.7121,2.7124,2.7134,2.7133,2.7136,2.714,2.7144,2.7145,2.7146,2.7149,2.715,2.7136,2.7136,2.7136,0,2.7064,2.7074,2.7077,2.7083,2.7087,2.7088,2.7095,2.7098,2.7106,2.7108,2.7106,2.7118,2.7122,2.7131,2.7133,2.7136,2.7137,2.7135,2.7145,2.7146,2.7147,2.7149,2.7151,2.7137,2.7137,2.7137,2.7137,0,2.7076,2.7082,2.7087,2.7095,2.7099,2.7106,2.7109,2.7113,2.7114,2.7117,2.7125,2.7129,2.7135,2.7138,2.7138,2.7147,2.7146,2.7144,2.7141,2.7148,2.7151,2.7152,2.7137,2.7137,2.7137,2.7137,0,0,2.7083,2.7093,2.7095,2.7098,2.7105,2.711,2.7117,2.7123,2.7127,2.7132,2.7137,2.7145,2.7144,2.7148,2.7149,2.7153,2.716,2.7151,2.7151,2.7152,2.7169,2.717,2.7171,2.716,2.716,2.716,2.7169,0,2.7091,2.7103,2.7106,2.7117,2.7123,2.7124,2.7129,2.7134,2.7137,2.7142,2.7145,2.7151,2.7149,2.7151,2.7155,2.7158,2.7163,2.7158,2.7164,2.7165,2.7163,2.7173,2.7173,2.7181,2.717,2.717,2.717,0,2.7102,2.7108,2.7119,2.7125,2.7128,2.7133,2.714,2.7145,2.715,2.7152,2.7156,2.7157,2.7164,2.7161,2.7169,2.7166,2.7169,2.717,2.7171,2.7171,2.7167,2.7173,2.7183,2.7184,2.7172,2.7172,2.7172,0,2.7106,2.7116,2.7125,2.7128,2.7136,2.7139,2.7143,2.7148,2.7152,2.7157,2.716,2.7166,2.7169,2.7173,2.7176,2.7173,2.7184,2.7181,2.7185,2.7185,2.7187,2.7187,2.7198,2.719,2.719,2.719,2.719,0,2.7114,2.712,2.7126,2.7131,2.7139,2.7142,2.7149,2.7153,2.7157,2.7163,2.7164,2.7169,2.7172,2.7177,2.7179,2.7186,2.7187,2.7189,2.7189,2.7188,2.7188,2.719,2.7189,2.719,2.719,2.719,2.719,0,2.7119,2.7123,2.7132,2.7139,2.7141,2.7147,2.7152,2.7157,2.716,2.7167,2.7168,2.7173,2.7179,2.7182,2.719,2.7191,2.7199,2.7199,2.7197,2.7197,2.7201,2.72,2.7213,2.7215,2.7206,2.7206,2.7206,0,2.7124,2.7129,2.7137,2.7141,2.7145,2.7151,2.7155,2.7159,2.7163,2.717,2.7173,2.718,2.7185,2.7195,2.7199,2.7204,2.7204,2.7209,2.7205,2.7204,2.7204,2.7204,2.7204,2.7209,2.7209,2.7209,2.7209,0,2.7132,2.7134,2.714,2.7147,2.7152,2.7158,2.7163,2.7166,2.7171,2.7175,2.7182,2.7186,2.7194,2.72,2.7206,2.7209,2.721,2.721,2.7211,2.721,2.7209,2.7209,2.7198,2.721,2.721,2.721,2.721,2.721,2.7136,2.7141,2.7148,2.7155,2.7159,2.7165,2.7169,2.7173,2.7179,2.7186,2.7188,2.7195,2.72,2.7209,2.7212,2.7217,2.7216,2.7218,2.7219,2.7219,2.7219,2.7209,2.7219,2.7219,2.7218,2.7218,2.7218,0,2.7144,2.7149,2.7155,2.7163,2.7168,2.7169,2.7175,2.718,2.7186,2.7191,2.7197,2.7204,2.721,2.7215,2.7221,2.7224,2.7225,2.7226,2.7225,2.7226,2.7219,2.7218,2.7225,2.7225,2.7225,2.7225,2.7225,2.7225,2.7149,2.7157,2.716,2.717,2.7174,2.7182,2.7185,2.719,2.7194,2.7203,2.7208,2.7211,2.7216,2.7223,2.7228,2.723,2.7231,2.7233,2.7234,2.7227,2.7226,2.7226,2.7224,2.7233,2.7233,2.724,2.724,2.724]}]]